Find Starlink 31690

NORAD ID: 59581 Int'l Des: 2024-076 Owner: SPXS Country: US Constellation: starlink operational
LEOCIRCULAR

当前视图

正在加载3D地球...

About Starlink 31690

Starlink 31690 (NORAD 59581) is a starlink constellation satellite (v2 mini) launched Apr 23, 2024 by SPXS of US. It operates in LEO, CIRCULAR orbit with a mass of 730.00 kg.

关于 Starlink 31690

正在加载描述...

即将过境

Passes for default location (London). Set your location on the main map for personalized predictions.

高度历史

Loading altitude history...

两行轨道根数

1 59581U 24076T 26193.50555399 .00001161 00000-0 51686-4 0 9998
2 59581 43.0003 23.9333 0000550 56.3268 303.7636 15.27587823125603
Epoch: Jul 12, 2026 • Age: 9 hours

当前状态

高度 494.6 km
远地点 / 近地点 N/A
速度 7.62 km/s
星下点 -38.26°S, 74.76°E
发射日期 Apr 23, 2024
运行时间 2.2 years
类型 internet

技术详情

分类 Payload
质量 730.00 kg
干质量 700.00 kg
总质量 730.00 kg
长度 0.30 m
直径 4.10 m
跨度 29.00 m
形状 Box + pan
制造商 SPXS
平台类型 Starlink V2M
阶段状态 In Orbit
所有者/国家 SPXS/US

Most Searched